www.pogodaiklimat.ru

Погода и климат >> Архив погоды >> Непал >> Непалгандж


ПОГОДА в Непалгандже

  • Прогноз погоды в Непалгандже
  • Монитор погоды в Непалгандже

АРХИВ ПОГОДЫ в Непалгандже

Время (UTC), дата Ветер
(напр.,м/с)
 
Видим.   Явления Облачность Т
(С)
Тd
(С)
f
(%)
Тe
(С)
Тes
(С)
Комфортность P
(гПа)
Po
(гПа)
Тmin
(С)
Tmax
(С)
R
(мм)
R24
(мм)
S
(см)
00 9.09 штиль 0 6000 м 9/4 600 м
[Sc As trans]
+26.3 +25.4 95 +38 +38 очень
душно
1000.6 983.2
03 9.09 В 2 10 км {дождь} 8/4 300 м
[Cu med, cong Ac und]
+27.0 +26.7 98 +42 +44 опасность
перегрева
1001.8 984.4 +25.6 4
06 9.09 штиль 0 10 км 9/5 300 м
[Cu med, cong Ac und]
+31.2 +27.3 80 +50 +55 опасность
перегрева
1001.2 983.8
09 9.09 СЗ 1 10 км 6/6 300 м
[Cu med, cong]
+34.4 +27.2 66 +53 +58 опасность
перегрева
999.6 982.1
12 9.09 З 1 10 км 6/4 300 м
[Cu med, cong Ac cast Ci fib]
+34.0 +28.0 71 +55 +55 опасность
перегрева
997.3 979.9 +35.6 0.3
00 10.09 штиль 0 10 км 8/4 600 м
[Sc diur, vesp Ac cast]
+27.0 +24.9 88 +39 +39 очень
душно
999.7 982.3
03 10.09 З 2 10 км 8/4 300 м
[Cu hum Ac trans]
+30.0 +27.3 85 +48 +50 опасность
перегрева
1001.3 983.9 +26.8 0.3
06 10.09 штиль 0 10 км 8/5 300 м
[Cu med, cong Ac trans]
+33.4 +28.0 73 +54 +61 опасность
перегрева
1000.2 982.8
09 10.09 ЮВ 2 8000 м 9/4 200 м
[Cb cap Ac cast]
+35.2 +28.0 66 +56 +59 опасность
перегрева
998.5 981.2
12 10.09 СВ 2 10 км в посл. час дождь {гроза} 8/4 300 м
[Cu hum Ac cast Cs]
+29.8 +27.5 87 +48 +48 опасность
перегрева
997.9 980.6 +36.7 7
00 11.09 штиль 0 7000 м 10/5 300 м
[Cu Sc As trans]
+25.2 +24.7 97 +35 +35 очень
душно
1001.5 984.2
03 11.09 В 2 8000 м 4/0 300 м
[Ac lent]
+27.9 +26.6 93 +43 +48 опасность
перегрева
1002.4 985.1 +24.3 21
06 11.09 ЮЗ 1 8000 м 6/3 600 м
[Cu med, cong Ac und]
+33.1 +28.5 77 +55 +65 опасность
перегрева
1001.7 984.4
09 11.09 СВ 2 7000 м 9/5 300 м
[Cu Sc As trans]
+34.4 +28.3 71 +56 +59 опасность
перегрева
1000.5 983.1
12 11.09 ЮВ 2 8000 м 8/4 300 м
[Cu med, cong Ac cast Cs]
+30.6 +27.7 85 +50 +50 опасность
перегрева
999.7 982.3 +35.4 0.6
00 12.09 ЮВ 2 6000 м 10/5 300 м
[Sc Ac cast]
+27.0 +26.7 98 +42 +42 опасность
перегрева
1003.8 986.4
03 12.09 В 2 7000 м 6/4 600 м
[Sc diur, vesp Ac cast]
+30.0 +27.3 85 +48 +51 опасность
перегрева
1004.5 987.0 +26.6 0.6
06 12.09 Ю 2 8000 м 6/5 300 м
[Cu med, cong Ac und]
+33.8 +28.4 73 +55 +63 опасность
перегрева
1004.2 986.7
09 12.09 штиль 0 8000 м 9/5 600 м
[Sc diur, vesp Ac cast]
+31.6 +28.3 83 +53 +56 опасность
перегрева
1001.4 984.0
12 12.09 В 2 8000 м гроза без осадков 8/4 300 м
[Cb cap Ac cast Cs]
+27.4 +26.4 94 +42 +42 опасность
перегрева
1001.2 983.8 +36.2 10
00 13.09 штиль 0 10 км 8/4 600 м
[Sc diur, vesp Ac cast]
+26.0 +25.1 95 +37 +37 очень
душно
1003.4 986.0
03 13.09 В 2 10 км 6/4 300 м
[Cu med, cong Ac trans]
+29.0 +26.2 85 +44 +47 опасность
перегрева
1004.6 987.2 +25.5 12
06 13.09 ЮВ 3 12 км 8/4 300 м
[Cu med, cong Ac und]
+30.8 +25.9 75 +46 +50 опасность
перегрева
1004.2 986.8
09 13.09 СВ 3 8000 м 9/5 300 м
[Cu med, cong Ac lent]
+32.8 +26.7 70 +50 +52 опасность
перегрева
1002.8 985.2
12 13.09 В 2 10 км 8/4 300 м
[Sc diur, vesp Ac cast Ci sp]
+29.4 +26.8 86 +46 +46 опасность
перегрева
1001.5 984.1 +34.6 0.1
00 14.09 штиль 0 17 км 10/5 600 м
[Cu Sc As trans]
+26.2 +25.7 97 +39 +39 очень
душно
1003.8 986.4
03 14.09 Ю 2 5000 м 8/4 300 м
[Cu hum Ac cuf]
+28.0 +26.0 89 +42 +44 опасность
перегрева
1005.6 988.2 +26.0 0.1
06 14.09 Ю 3 6000 м слаб. морось 10/4 300 м
[Cu Sc As trans]
+28.8 +26.2 86 +44 +47 опасность
перегрева
1005.9 988.5
09 14.09 В 3 7000 м 10/4 300 м
[St As trans]
+29.4 +27.3 88 +47 +49 опасность
перегрева
1004.3 986.6
12 14.09 ЮВ 2 7000 м 10/4 300 м
[St As trans]
+28.2 +26.3 89 +43 +43 опасность
перегрева
1003.5 985.8 +30.9 3
00 15.09 штиль 0 7000 м 5/3 600 м
[Cu hum Ac trans]
+25.8 +25.4 98 +38 +38 очень
душно
1005.0 987.3
03 15.09 В 1 8000 м 5/3 600 м
[Cu hum Ac trans]
+27.4 +26.2 93 +41 +46 опасность
перегрева
1006.2 988.5 +25.5 3
06 15.09 Ю 3 8000 м 6/6 600 м
[Sc diur, vesp]
+33.0 +27.5 73 +52 +59 опасность
перегрева
1005.8 988.1
09 15.09 Ю 2 8000 м 6/4 600 м
[Cu med, cong Ci sp]
+34.4 +26.3 63 +51 +58 опасность
перегрева
1003.6 986.1
12 15.09 СВ 3 8000 м 5/3 600 м
[Cu hum Ac cast Ci sp]
+30.2 +26.1 79 +46 +46 опасность
перегрева
1001.9 984.5 +37.2

 

Местоположение метеостанции Непалгандж (Непал): широта 28.10 долгота 81.67 высота над уровнем моря 165 м.

В архиве по умолчанию представлена погода в Непалгандже за последнюю неделю. Архивные данные за месяц целиком и за предыдущие месяцы, начиная с января 2011 года, Вы можете получить, выбрав интересующий диапазон дат из раскрывающегося списка и нажав кнопку "Ввод!".


*Определитесь, кто Вы:
робот инопланетянин человек

Внимание! Время в таблицах - всемирное. Для получения местного времени необходимо прибавить поправку, которая равна 5.5 ч.

Смотрите также архив погоды в соседних городах и на ближайших метеорологических станциях:

Погода в Суркхете (Непал) (56 км)
Погода в Бахрайче (Уттар-Прадеш, Индия) (59 км)
Погода в Гхорахи (Непал) (82 км)
Погода в Дхангадхи (Непал) (134 км)
Погода в Джумле (Непал) (140 км)
Погода в Дипаял-Силгадхи (Непал) (146 км)
Погода в Лакхнау (Уттар-Прадеш, Индия) (169 км)
Погода в Даделдхуре (Непал) (171 км)
Погода в Сиддхартханагаре (Непал) (187 км)
Погода в Султанпуре (Уттар-Прадеш, Индия) (207 км)

Пояснения к столбцам:

Ветер - указаны скорость ветра в м/с - средняя за 10 мин, порывы в срок и между сроками (в фигурных скобках) и направление, откуда дует ветер: С - северный, СВ - северо-восточный, В - восточный, ЮВ - юго-восточный, Ю - южный, ЮЗ - юго-западный, З - западный, СЗ - северо-западный.
Видимость - горизонтальная дальность видимости в метрах или километрах. При видимости от 1 до 10 км при отсутствии осадков обычно наблюдается дымка, при ухудшении видимости до 1 км и менее - туман. В сухую погоду видимость может ухудшаться дымом, пылью или мглою.
Явления - указаны атмосферные явления, наблюдавшиеся в срок или в последний час перед сроком; фигурными скобками обозначены явления, наблюдавшиеся между сроками (за 1-3 часа до срока); квадратными скобками обозначены град или гололедные отложения с указанием их диаметра в мм.
Облачность - указаны через наклонную черту общая и нижняя облачность в баллах и высота нижней границы облаков в метрах; квадратными скобками обозначены формы облаков: Ci - перистые, Cs - перисто-слоистые, Cc - перисто-кучевые, Ac - высококучевые, As - высокослоистые, Sc - слоисто-кучевые, Ns - слоисто-дождевые, Cu - кучевые, Cb - кучево-дождевые. Подробнее классификацию облаков см. в Атласе облаков (PDF).
T - Температура воздуха - температура, измеренная на высоте 2 м над землей.
Td - Температура точки росы - температура, при понижении до которой содержащийся в воздухе водяной пар достигнет насыщения.
f - Относительная влажность воздуха - влажноcть воздуха, измеренная на высоте 2 м над землей.
Te - Эффективная температура - температура, которую ощущает одетый по сезону человек в тени. Характеристика душности погоды. При расчете учитывается влияние влажности воздуха и скорости ветра на теплоощущения человека.
Tes - Эффективная температура на солнце - температура, которую ощущает человек, с поправкой на солнечный нагрев. Характеристика знойности погоды. Зависит от высоты солнца над горизонтом, облачности и скорости ветра. Ночью, в пасмурную погоду, а также при ветре 12 м/с и более поправка равна нулю.
P - Атмосферное давление - приведенное к уровню моря атмосферное давление.
Po - Атмосферное давление - измеренное на уровне метеостанции атмосферное давление.
Tmin - Минимальная температура - минимум температуры воздуха на высоте 2 м над землей.
Tmax - Максимальная температура - максимум температуры воздуха на высоте 2 м над землей.
R - Количество осадков - Количество выпавших осадков за период времени, мм. При наведении курсора мыши на число - период времени, за который выпало указанное количество осадков.
R24 - Количество осадков - Количество выпавших осадков за 24 часа, мм.
S - Снежный покров - Высота снежного покрова, см. При наведении курсора мыши на число - состояние снежного покрова и степень покрытия местности в баллах.